loading
|
Showing default

ANNA 1B, 446

Orbit data source: Space-Track

ANNA 1B, 446 is a payload satellite owned by USN BuWeps (US) in LEO that was launched on Wed, 31 Oct 1962 UTC via a THOR ABLESTAR launch vehicle from the Air Force Eastern Test Range (AFETR). Payloads include a variety of satellites, spacecraft, and rockets equipped with specific instruments for various scientific and technological missions. These include communications satellites like Starlink; space stations such as the ISS; scientific satellites like the Hubble; Earth observation satellites from companies like Planet Labs, Umbra, and HawkEye 360; GPS; miniature CubeSats for education and research; and military/defense satellites.

Loading next visibility...
Loading greatness...
ANNA 1B details
Identifier
446, 1962-060A
Orbit
LEO
Last TLE update8 hours ago
Origin
Flag of USUSN BuWeps (US)
ManufacturerAPL
Mission statusUnknown
MissionDefense Geodetic
Bus & MotorTRANSIT 1, Unknown motor
Mass157 kg wet, 157 kg dry
Launch date (UTC)
1962-10-31 (62 years ago)
Launch vehicle
THOR ABLESTAR
Launch site
Air Force Eastern Test Range (AFETR)
Object type
Payload
Rocket body
Debris
Radar Cross Section0.86 m², Medium (>0.1 m² and < 1m²)

Expand to show TLE details & history

TLE from 8 hours ago
0 ANNA 1B
1 00446U 62060A   24258.96079456 -.00000086  00000-0  76925-4 0  9993
2 00446  50.1412 149.2683 0070012 275.1948  97.7785 13.35328330 18168
Epoch: 2024-09-14T23:03Z
Definitive object data (Epoch: 2024-09-14T23:03:32.649Z)
Latitude10.51827°
Longitude177.84316°
Altitude1,133.979 km
Speed7.284 km/s
True Right ascension10h 32m 33s
True Declination10° 27' 35"
Sunlit
Object was in daylight at TLE epoch
Predictive object data (real-time)
Latitude5.14917°
Longitude-16.52481°
Altitude1,138.155 km
Speed7.28 km/s
Apparent Right ascension19h 04m 06s
Apparent Declination-39° 04' 08"
Sunlit
Object is in full shadow
Predictive observer data (real-time)
Local Sidereal Time23:41:19
Azimuth227.761° WSW
Elevation-11.185°
Doppler factor1
Orbital elements
Apogee1,179.966 km
Perigee1,074.871 km
Semi-major axis7,505.555 km
Eccentricity0.0070012
Inclination50.1412°
RAAN149.2683°
Arg. of periapsis275.1948°
True anomaly98.57243°
Mean anomaly97.7785°
Eccentric anomaly98.17556°
Mean motion3.33787 °/min
BSTAR0.000076925
Period107.85 mins
No data available
Other satellites on launch #60 in the year 1962 (1962-10-31 UTC)

ANNA 1B Visibility forecast

Observer location: 39.9160978°, -105.1181434

ANNA 1B is not visible in the next 10 days
Span
Click to sort rows by Start time (UTC) header in descending order
Start Az.
Max El. time (UTC)
Max El. Az.
Max El.
End time (UTC)
End Az.